sat.trackr.live / text

‹ back to catalog

STARLINK-30755

NORAD 58186 · 2023-167M

PAYLOAD ACTIVE UNKNOWN

§ Identity

Operator
Country
US
Launch date
2023-10-30
Launch site
AFETR
Launch vehicle
Mass (kg)
RCS (m²)

Purposes: comms

External: N2YO · Heavens-Above · Gunter

§ Orbital elements

Epoch: 2026-09-19T23:44:43.893024Z

Period
94.27 min
Inclination
43.0028°
Eccentricity
0.0001360
Mean motion
15.27578957 rev/d
Perigee alt
482.1 km
Apogee alt
484.0 km
Semi-major
6,861.2 km
B*
3.7552e-5
RAAN
125.8509°
Arg perigee
271.7047°
Mean anomaly
88.3649°
Rev number
16,070

§ Raw data

STARLINK-307551 58186U 23167M   26262.98939691  .00000771  00000+0  37552-4 0  99992 58186  43.0028 125.8509 0001360 271.7047  88.3649 15.27578957160703

JSON: /api/v1/satellites/58186 · /tle

For live sub-satellite position, see the globe view (requires WebGL).

§ Visibility from observer

Set your observer location to see the next 7 days of passes ≥ 10°. The values pass through the URL so the page stays shareable.

No JS? Fill the form by hand. The geolocation button needs JavaScript.